Location: Casilda
(33.0440°S, 61.1680°W)
Time: 17:01:38
(UTC-03:00)

ISS - Pass Details

Date: 03 March 2021
Orbit: 417 x 422 km, 51.6° (Epoch: 27 February)

Event Time Altitude Azimuth Distance (km) Brightness Sun altitude
Rises 21:57:50 0° 231° (SW) 2,397 1.3 -28.6°
Reaches altitude 10° 21:59:59 10° 236° (SW) 1,524 0.0 -29.0°
Enters shadow 22:01:04 18° 241° (WSW) 1,109 -0.9 -29.2°
